Lapse_Rate
6.9 7.5 8.1 7.8 8.3 8.7 9.0 9.0 9.1 9.4 9.1 9.3 9.0 9.3 8.8 8.6 8.6 8.5 8.2 8.3 8.1 7.7 7.7 7.3 6.7 7.0 7.2 7.3 7.2 7.5 7.7 7.7 7.7 7.7 7.8 7.7 7.5 7.4 7.5 7.6 7.5 7.1 6.9 7.1
7.3 7.6 8.0 9.0 8.9 8.7 8.7 8.9 9.2 9.6 9.4 9.1 9.0 9.4 8.9 8.6 8.3 8.1 8.0 7.8 7.6 7.5 7.6 7.4 6.8 6.4 6.4 6.5 6.9 7.1 7.7 7.8 7.8 7.7 7.6 7.7 7.4 7.4 7.3 7.4 7.8 7.7 7.4 7.0
7.6 7.8 8.4 8.6 8.8 8.7 8.8 9.0 9.3 9.4 8.7 9.1 9.2 9.3 9.1 8.8 8.5 8.2 7.6 7.6 7.4 7.9 8.1 7.9 7.2 6.6 6.5 6.6 6.8 6.9 7.4 7.6 7.6 7.7 7.7 7.8 7.9 7.7 7.9 7.9 7.7 7.9 7.8 7.6
8.3 8.2 8.5 8.5 8.8 8.7 8.5 8.6 8.5 8.8 8.9 8.9 9.1 9.3 9.1 8.8 8.7 8.3 7.1 7.0 7.1 7.7 8.1 8.2 7.7 6.4 6.4 6.7 6.7 7.0 7.5 7.7 7.7 7.7 7.9 8.0 7.6 8.1 7.8 7.6 7.7 7.5 7.9 7.8
8.4 8.6 8.5 8.6 8.1 8.5 8.1 8.4 8.5 8.6 8.7 8.8 9.3 9.4 9.2 9.1 8.8 8.0 7.5 6.9 6.7 7.0 7.7 7.6 7.4 6.7 6.6 6.3 6.6 7.4 7.5 7.6 7.9 7.7 7.8 7.8 7.9 8.2 7.9 7.8 7.6 7.5 7.5 7.8
8.4 8.4 8.7 8.7 8.5 8.4 8.4 8.6 8.7 8.7 9.0 8.5 9.3 9.4 9.3 9.5 9.0 7.9 7.7 7.6 7.2 6.3 6.2 6.6 7.1 7.0 6.7 6.6 6.8 7.4 7.8 7.9 8.0 8.1 8.0 8.0 8.3 8.0 8.1 8.3 7.9 7.8 7.5 7.8
8.5 8.6 9.0 8.4 8.7 8.3 8.5 8.4 8.3 7.6 8.1 8.3 9.4 9.3 9.0 9.4 9.1 8.6 8.1 7.9 7.6 7.0 6.4 6.0 6.1 7.5 7.0 7.0 7.0 6.7 7.0 7.3 7.5 7.7 7.9 7.9 8.1 8.2 8.4 8.3 8.1 8.0 8.0 7.9
8.7 9.4 9.3 9.1 8.7 8.5 8.8 8.3 8.6 7.7 7.6 8.6 9.5 9.4 9.0 9.1 8.6 8.3 8.2 8.0 7.6 7.1 6.7 6.1 5.7 5.6 6.0 6.8 6.7 6.7 7.1 6.9 6.7 6.9 7.2 7.4 7.7 7.7 8.0 8.3 8.3 7.9 8.0 7.9
9.0 9.3 9.3 9.2 8.7 8.1 8.7 8.5 8.3 8.2 8.6 8.7 9.2 9.1 8.6 8.8 8.9 8.6 8.6 8.2 7.6 7.3 6.9 6.7 6.3 5.9 5.7 5.5 5.6 6.3 6.3 6.4 6.7 6.6 6.3 6.5 6.9 7.3 7.7 8.0 7.9 7.9 7.7 8.0
9.0 8.7 8.8 9.0 8.8 8.4 8.6 8.3 8.2 8.4 7.5 7.5 9.1 9.0 9.1 8.8 8.5 8.1 7.6 7.7 7.8 7.4 7.0 6.9 6.9 6.8 6.2 5.9 5.7 5.3 5.3 5.2 5.4 6.1 6.1 6.3 6.6 6.7 7.2 7.3 7.3 7.6 7.6 7.5
8.6 8.6 8.7 9.0 8.9 8.9 8.5 8.3 8.3 8.3 8.5 7.7 7.2 8.5 8.9 8.7 8.7 8.7 8.5 8.2 7.7 7.2 7.0 7.0 7.0 6.9 6.2 6.1 5.8 5.5 5.4 5.3 5.2 5.1 6.0 6.4 6.4 6.5 6.9 7.1 7.2 7.4 7.4 7.3
7.5 8.0 8.1 8.3 8.4 9.0 9.2 9.0 9.0 8.3 8.1 8.6 8.7 9.2 9.0 8.8 8.9 9.1 8.6 7.9 7.3 6.9 6.8 6.8 6.2 6.0 6.3 6.3 6.1 5.8 5.8 5.7 5.5 5.8 5.1 5.2 5.8 6.8 6.8 7.1 7.3 7.3 7.3 7.5
7.8 8.0 7.9 8.1 8.8 9.2 9.3 9.5 8.3 8.4 8.5 8.2 7.9 8.4 9.1 8.9 8.5 8.2 8.1 7.7 7.3 7.1 6.9 6.5 6.2 6.0 6.0 5.9 5.8 5.5 5.9 6.2 6.1 5.8 5.2 5.1 5.9 6.8 7.0 7.1 7.0 7.0 7.1 7.2
7.8 7.8 7.8 7.3 7.7 8.0 8.6 8.8 9.3 8.8 8.2 8.2 8.4 8.4 8.8 9.1 8.8 8.6 8.3 7.8 7.0 6.7 6.7 6.6 6.2 6.0 6.3 6.2 5.6 5.5 5.5 5.7 6.0 6.0 5.8 6.1 6.4 6.7 6.6 6.9 6.7 6.9 7.1 7.0
7.6 7.4 7.5 7.4 7.6 8.0 7.9 8.0 8.3 8.6 8.7 8.5 8.2 8.2 8.4 8.6 8.5 7.9 7.3 6.7 6.6 6.6 6.6 6.3 6.0 5.9 6.2 5.9 5.9 5.8 5.7 5.9 6.0 6.0 6.3 6.6 6.8 6.8 6.7 6.8 6.8 7.0 7.1 7.0
6.9 6.9 7.0 7.1 7.2 7.4 7.6 7.8 8.0 8.2 8.4 8.5 8.3 8.4 8.3 8.0 7.7 7.3 6.9 6.7 6.5 6.5 6.4 6.3 6.3 6.4 6.4 6.2 5.9 6.0 6.0 6.2 5.8 6.3 6.7 6.6 6.8 6.8 6.8 6.7 6.7 6.8 7.0 6.8
6.8 6.8 7.0 7.0 7.3 7.2 7.0 7.7 7.8 8.0 8.2 8.3 8.1 7.9 8.0 7.4 7.3 7.1 6.9 6.8 6.9 6.8 6.6 6.5 6.2 6.0 6.0 5.9 6.0 6.0 6.1 6.3 6.1 6.5 6.7 6.7 6.9 7.0 6.7 6.6 6.5 6.5 6.5 6.5
7.1 7.0 7.0 6.8 6.8 5.9 7.0 7.5 7.8 7.9 8.1 8.2 8.1 7.7 7.7 7.5 7.3 7.1 6.8 6.6 6.5 6.2 6.2 6.3 6.2 6.3 6.3 6.2 5.9 6.0 6.1 6.4 6.5 6.7 6.7 6.7 6.9 6.9 6.7 6.5 6.5 6.4 6.7 6.7
7.5 7.4 7.2 7.1 6.9 6.9 7.2 7.7 7.4 7.5 7.9 7.8 7.8 7.8 7.8 7.7 7.3 7.5 7.0 6.7 6.5 6.2 6.2 6.1 6.0 6.1 6.4 5.7 5.9 6.2 6.6 6.3 6.7 6.9 6.7 6.6 6.8 6.7 6.5 6.3 6.0 6.2 6.6 6.8
8.0 7.8 7.5 7.3 7.0 6.4 7.3 8.0 7.8 7.3 7.5 7.4 7.4 7.4 7.6 8.0 8.0 7.7 7.1 6.7 6.6 6.4 6.0 5.7 6.1 6.3 6.0 5.8 6.1 6.6 6.9 6.7 6.8 6.7 6.5 6.5 6.6 6.3 6.0 5.6 5.3 5.9 6.3 6.4
7.9 7.6 7.5 7.3 7.1 7.1 7.3 7.0 7.7 7.5 6.5 6.6 6.7 6.8 7.1 6.9 6.6 6.6 7.0 7.4 7.3 6.7 5.9 5.9 6.3 6.9 6.4 6.0 6.5 6.7 6.9 7.0 6.8 6.6 6.5 6.5 6.2 5.8 5.6 5.6 5.6 5.9 6.1 6.4
8.3 8.1 7.9 8.0 7.8 7.2 7.5 7.5 7.4 7.5 7.0 7.0 6.9 6.8 6.8 6.6 6.5 6.8 6.6 6.8 6.6 6.5 6.3 6.3 6.2 6.5 6.4 6.2 6.6 6.8 6.8 6.7 6.6 6.7 6.5 6.3 5.8 5.7 5.3 5.5 5.4 5.5 5.8 6.1
8.4 8.6 8.6 8.4 7.9 7.4 7.4 7.4 7.0 7.1 7.3 6.9 7.0 7.2 6.7 6.6 6.6 6.9 7.1 6.7 6.6 6.6 6.8 6.6 6.6 6.6 6.5 6.3 6.5 6.8 6.6 6.6 6.8 6.6 6.1 5.9 5.8 5.2 4.9 5.2 5.2 5.3 5.5 5.7
8.4 8.4 8.3 8.1 8.2 8.3 8.0 7.4 6.8 6.8 6.8 6.6 6.5 7.0 7.2 7.2 7.2 7.2 7.1 6.5 6.5 6.7 7.0 7.0 6.2 6.4 6.4 6.2 6.3 6.5 6.5 6.6 6.4 6.5 6.1 5.7 5.1 4.9 4.4 5.1 5.4 5.6 5.9 6.0
7.4 7.4 7.7 7.7 7.4 7.5 7.8 7.4 7.2 7.1 6.8 7.0 7.0 7.2 7.2 7.1 6.7 6.4 6.4 6.7 6.3 6.3 7.2 6.3 6.7 6.3 6.3 6.3 6.4 6.4 6.3 5.9 6.1 5.9 5.9 5.4 5.1 4.9 4.9 5.4 5.4 5.7 5.9 6.0
7.6 7.6 7.4 7.3 7.1 6.9 6.7 6.6 6.6 6.7 6.9 7.0 7.1 6.9 6.4 6.2 6.7 6.8 6.9 7.0 6.5 6.1 6.2 6.1 6.5 6.3 6.2 6.4 6.3 6.2 5.9 5.8 5.6 5.9 5.6 5.1 4.8 5.1 5.1 5.3 5.2 5.5 5.7 6.1
Wind_Speed
9 3 7 11 8 5 8 8 8 2 6 3 5 9 8 7 10 9 8 15 13 9 13 11 15 14 15 14 13 12 13 9 7 4 4 3 3 3 3 4 12 18 17 18
2 9 9 6 5 4 5 7 8 3 8 5 7 6 9 8 9 10 13 11 16 12 8 8 8 16 16 15 12 9 10 13 10 6 5 3 4 4 4 4 4 15 16 16
8 6 3 3 3 7 6 6 3 3 5 2 5 1 7 7 14 14 12 11 11 11 10 7 7 11 15 14 16 14 14 13 11 8 5 3 3 4 3 7 7 7 15 16
6 5 5 3 6 4 7 9 8 6 5 4 1 4 5 9 9 14 12 10 9 10 8 6 7 7 15 16 12 10 10 10 8 8 7 9 9 9 7 7 9 7 15 13
8 2 3 4 7 7 1 7 7 6 5 5 12 4 6 9 9 14 14 13 11 10 10 10 9 8 7 8 11 11 9 10 11 13 12 8 11 8 6 4 5 8 8 16
7 2 3 2 4 2 5 6 8 6 2 3 10 4 3 5 14 15 14 17 15 15 13 10 9 9 7 6 7 6 7 7 7 8 11 12 10 9 7 8 5 4 6 10
10 12 7 7 1 4 6 3 4 6 2 5 8 7 8 10 13 16 13 12 14 14 13 11 9 8 8 8 6 4 5 3 7 7 9 11 11 8 12 11 9 9 6 6
5 9 11 8 4 2 4 3 4 2 2 4 8 2 2 9 10 9 9 10 11 11 10 9 10 9 9 9 9 7 8 6 5 5 7 7 9 9 9 9 9 9 7 10
2 4 9 7 7 7 4 3 1 2 5 3 2 5 6 10 9 7 8 12 10 9 9 9 8 7 8 7 8 8 8 8 8 8 7 7 7 8 9 11 11 11 13 10
3 4 5 1 7 1 4 2 5 4 2 5 2 2 4 7 8 8 13 10 9 9 9 7 7 8 7 4 2 4 6 8 8 8 7 6 7 8 8 9 13 12 12 14
4 3 9 6 4 8 1 2 3 4 4 1 3 1 4 6 8 8 9 9 9 9 8 8 7 6 5 5 6 5 5 4 5 6 6 7 7 6 6 7 6 9 11 12
3 2 1 6 8 9 4 6 5 5 6 2 2 5 7 8 8 7 9 8 8 9 8 7 6 6 5 4 3 3 4 6 5 5 6 6 7 7 7 7 8 8 10 10
3 3 3 8 7 7 4 2 5 0 3 5 4 5 4 10 11 10 10 8 7 7 7 7 7 5 4 3 1 2 3 3 5 2 3 5 7 8 7 6 7 7 7 8
6 2 5 5 6 6 6 8 5 6 3 5 5 5 7 3 10 8 8 7 5 5 8 6 7 6 5 5 4 4 5 5 3 5 6 7 7 9 8 7 7 8 7 7
4 1 2 5 9 8 10 10 9 5 5 3 6 6 8 1 8 7 8 9 8 7 6 6 4 3 3 4 5 5 4 1 2 4 6 7 7 7 8 8 8 8 6 9
4 3 4 4 7 9 12 11 10 9 8 9 9 6 5 6 8 8 7 7 6 5 7 7 6 5 5 5 6 6 6 4 3 5 7 7 8 8 8 10 9 8 8 10
4 3 3 2 6 9 7 6 9 11 8 8 4 3 5 5 6 5 8 9 7 5 5 5 4 3 4 6 7 8 6 3 5 6 7 6 7 7 7 8 8 8 9 8
3 5 3 2 5 5 8 8 10 11 10 3 8 7 7 5 7 9 8 7 5 3 3 3 3 4 6 5 5 4 4 4 6 7 6 5 5 6 7 8 8 9 8 9
3 4 2 5 5 8 6 8 6 3 5 7 7 8 8 7 8 7 7 5 2 2 0 2 3 4 4 7 8 5 5 6 6 5 4 5 6 6 7 8 10 8 7 7
7 5 5 2 3 6 4 11 13 4 1 7 9 9 8 7 3 3 3 2 5 2 4 4 5 1 4 5 7 8 7 5 6 4 4 5 6 6 6 8 12 7 6 7
4 3 6 5 6 6 2 9 6 3 2 3 4 3 2 1 4 3 7 7 5 5 4 4 4 3 4 6 7 7 7 5 3 2 2 5 6 6 8 7 6 7 6 5
7 6 5 3 4 8 3 5 4 6 3 4 6 7 3 3 0 3 6 8 8 7 9 9 2 3 6 6 6 7 4 2 2 2 1 4 5 6 8 11 7 7 5 4
3 4 4 4 1 0 5 1 7 3 2 6 3 6 6 6 3 4 3 5 5 7 8 2 2 4 6 6 7 4 3 1 1 3 3 4 5 7 9 10 7 4 4 2
1 4 3 5 3 0 9 5 5 3 2 2 4 6 7 7 2 5 6 6 9 9 8 5 5 5 6 7 3 5 2 1 2 2 2 3 5 8 11 9 3 3 3 3
2 4 3 2 6 8 6 4 5 3 2 4 6 5 6 5 6 6 6 3 6 13 9 5 6 5 5 4 2 2 1 2 3 3 3 3 3 5 10 3 1 3 1 2
4 3 2 0 3 5 4 13 8 6 4 4 6 6 10 13 11 11 9 7 5 7 5 5 2 3 4 3 4 4 4 4 4 4 3 4 4 7 7 4 3 0 3 4
Wind_Direction
218 179 236 244 199 5 345 348 339 332 105 67 277 135 115 97 93 82 80 68 61 105 128 141 151 149 143 155 140 146 140 152 152 157 163 175 212 246 261 239 192 191 192 185
228 235 248 34 15 354 330 307 303 250 123 124 275 164 152 125 129 105 74 60 105 94 75 77 110 136 140 142 134 134 145 163 171 165 180 176 195 221 210 234 229 202 193 197
220 256 80 22 330 286 271 249 297 28 356 305 267 230 130 125 114 101 86 81 69 109 110 97 95 129 141 143 149 171 171 171 174 175 171 193 202 220 248 231 237 192 199 197
228 135 72 317 283 46 39 7 0 338 2 274 92 245 188 148 135 123 111 101 97 89 83 114 111 93 151 168 168 158 169 171 176 170 190 195 214 224 222 228 225 220 191 194
266 154 150 274 73 20 14 13 320 314 316 332 299 78 244 145 135 135 137 138 137 127 114 88 89 66 111 152 169 172 177 179 182 193 202 195 205 217 216 215 229 227 208 196
259 256 129 251 35 98 333 306 308 282 220 332 255 142 290 175 141 141 147 147 142 132 124 120 126 126 125 116 88 130 180 206 199 193 205 216 218 215 223 230 242 238 207 210
277 252 191 146 321 261 233 330 324 357 18 220 317 79 202 108 142 139 141 138 148 138 133 138 141 132 134 120 118 132 149 201 220 213 211 218 225 217 222 225 233 240 217 215
274 323 147 150 182 92 317 113 133 285 52 280 321 309 238 101 87 103 122 136 96 114 134 149 155 158 151 151 161 157 173 201 233 261 252 231 223 226 231 226 226 235 225 230
349 59 77 144 100 110 320 11 207 37 320 44 160 63 42 112 119 135 119 97 108 111 113 113 124 150 154 159 164 165 180 203 208 220 235 249 247 235 237 236 233 234 237 229
32 7 317 142 91 182 180 245 17 346 314 289 338 145 182 144 168 126 103 112 107 98 88 83 68 74 79 97 141 200 214 200 213 220 222 227 236 246 249 249 250 241 233 237
73 105 290 127 180 201 95 241 251 141 110 190 9 293 124 106 119 124 138 138 133 114 96 86 76 80 77 64 44 25 5 313 256 231 229 239 245 249 266 269 259 253 248 244
53 127 304 263 304 318 142 179 120 108 309 277 152 269 147 164 152 117 102 90 97 102 101 99 88 61 65 75 44 360 347 340 342 325 298 263 245 249 244 246 260 268 265 248
352 8 15 327 340 351 285 154 90 20 126 236 150 254 90 74 78 73 99 98 104 112 115 95 83 73 37 335 1 318 299 288 292 312 338 318 312 280 258 272 278 277 279 277
70 80 147 204 252 266 304 312 189 187 149 233 223 258 308 100 134 116 104 108 107 76 83 79 63 54 35 359 328 304 285 278 314 341 323 308 293 289 275 269 264 266 264 274
101 147 346 302 297 311 316 314 323 322 255 208 250 277 277 356 124 110 92 83 78 64 64 108 97 63 29 343 317 306 288 288 314 292 282 278 277 274 279 275 264 261 267 277
146 218 219 261 297 300 287 293 291 281 287 295 287 297 37 98 84 74 92 84 61 29 35 54 38 20 340 310 293 286 262 242 255 277 272 277 284 280 271 276 270 257 256 265
128 92 48 272 343 342 320 301 305 298 290 255 251 144 115 94 91 81 80 82 79 55 46 17 350 324 303 292 282 278 254 256 267 271 275 271 280 284 277 273 277 263 251 260
123 117 104 266 354 286 250 276 280 281 265 324 77 59 63 116 96 91 84 80 50 9 352 6 346 329 304 285 307 279 261 267 264 271 283 296 326 312 300 291 283 269 258 253
188 150 174 161 213 270 296 277 351 29 312 29 59 53 59 39 105 39 65 37 320 273 110 235 259 268 313 313 300 293 285 283 278 278 337 333 321 312 315 318 298 286 285 277
222 157 155 207 234 266 239 306 296 157 278 31 54 38 32 21 18 240 174 213 299 282 246 228 255 320 325 308 313 296 270 261 253 276 327 328 313 308 306 317 305 282 259 258
213 210 191 210 231 249 61 13 344 159 239 32 40 7 309 298 234 279 18 352 328 307 319 359 33 357 309 310 303 287 281 255 232 118 336 321 324 322 315 299 285 296 306 335
190 174 197 206 246 259 51 33 113 209 282 46 24 343 353 355 4 332 354 342 347 8 346 312 336 307 289 299 294 283 285 342 29 79 6 325 334 327 324 304 302 307 317 19
263 178 177 111 246 352 344 125 37 359 65 45 15 303 314 341 28 46 314 307 287 306 266 221 271 312 312 311 294 265 169 196 42 72 11 330 343 325 311 296 308 326 334 26
31 53 70 51 345 333 123 113 104 115 124 341 328 313 329 307 230 244 269 319 342 319 332 328 333 332 314 322 254 127 137 49 334 329 4 6 347 308 311 294 295 320 345 359
309 49 305 255 355 25 40 110 116 104 89 337 313 316 315 357 300 249 264 245 84 288 278 297 306 302 16 15 74 83 224 249 268 296 300 312 304 297 295 292 356 319 346 345
340 9 40 199 142 114 21 359 348 11 4 355 340 329 22 35 8 3 328 281 240 245 215 227 317 17 350 278 233 234 238 254 264 286 291 291 302 290 288 231 241 6 39 357